Year,Month,Day,Hour,Minute,Value (Times are PST for windspeed in km/hr)
2010,08,06,00,00,0.90
2010,08,06,00,01,0.70
2010,08,06,00,02,2.10
2010,08,06,00,03,1.60
2010,08,06,00,04,1.00
2010,08,06,00,05,5.30
2010,08,06,00,06,0.40
2010,08,06,00,07,1.10
2010,08,06,00,08,2.50
2010,08,06,00,09,0.10
2010,08,06,00,10,1.00
2010,08,06,00,11,0.10
2010,08,06,00,12,0.20
2010,08,06,00,13,1.00
2010,08,06,00,14,0.90
2010,08,06,00,15,1.20
2010,08,06,00,16,1.10
2010,08,06,00,17,1.30
2010,08,06,00,18,2.60
2010,08,06,00,19,1.70
2010,08,06,00,20,1.00
2010,08,06,00,21,0.70
2010,08,06,00,22,3.30
2010,08,06,00,23,1.00
2010,08,06,00,24,1.30
2010,08,06,00,25,6.00
2010,08,06,00,26,2.20
2010,08,06,00,27,1.30
2010,08,06,00,28,2.00
2010,08,06,00,29,0.20
2010,08,06,00,30,0.30
2010,08,06,00,31,0.30
2010,08,06,00,32,0.60
2010,08,06,00,33,1.50
2010,08,06,00,34,2.60
2010,08,06,00,35,2.40
2010,08,06,00,36,0.60
2010,08,06,00,37,1.10
2010,08,06,00,38,2.20
2010,08,06,00,39,1.40
2010,08,06,00,40,1.40
2010,08,06,00,41,0.80
2010,08,06,00,42,3.40
2010,08,06,00,43,1.30
2010,08,06,00,44,1.50
2010,08,06,00,45,0.60
2010,08,06,00,46,1.50
2010,08,06,00,47,0.10
2010,08,06,00,48,0.10
2010,08,06,00,49,0.80
2010,08,06,00,50,1.20
2010,08,06,00,51,0.10
2010,08,06,00,52,0.10
2010,08,06,00,53,0.20
2010,08,06,00,54,0.70
2010,08,06,00,55,0.60
2010,08,06,00,56,0.80
2010,08,06,00,57,1.30
2010,08,06,00,58,2.50
2010,08,06,00,59,1.60
2010,08,06,01,00,0.40
2010,08,06,01,01,0.30
2010,08,06,01,02,0.00
2010,08,06,01,03,0.90
2010,08,06,01,04,2.50
2010,08,06,01,05,0.00
2010,08,06,01,06,0.10
2010,08,06,01,07,0.20
2010,08,06,01,08,0.60
2010,08,06,01,09,0.40
2010,08,06,01,10,0.30
2010,08,06,01,11,0.30
2010,08,06,01,12,0.20
2010,08,06,01,13,0.30
2010,08,06,01,14,0.10
2010,08,06,01,15,0.30
2010,08,06,01,16,0.10
2010,08,06,01,17,0.20
2010,08,06,01,18,0.30
2010,08,06,01,19,0.20
2010,08,06,01,20,0.20
2010,08,06,01,21,0.10
2010,08,06,01,22,1.60
2010,08,06,01,23,0.20
2010,08,06,01,24,0.20
2010,08,06,01,25,0.30
2010,08,06,01,26,0.00
2010,08,06,01,27,0.10
2010,08,06,01,28,1.10
2010,08,06,01,29,0.50
2010,08,06,01,30,0.80
2010,08,06,01,31,2.70
2010,08,06,01,32,0.40
2010,08,06,01,33,0.60
2010,08,06,01,34,0.00
2010,08,06,01,35,0.00
2010,08,06,01,36,0.10
2010,08,06,01,37,0.00
2010,08,06,01,38,0.10
2010,08,06,01,39,0.40
2010,08,06,01,40,0.10
2010,08,06,01,41,0.00
2010,08,06,01,42,0.00
2010,08,06,01,43,0.20
2010,08,06,01,44,0.20
2010,08,06,01,45,0.00
2010,08,06,01,46,0.00
2010,08,06,01,47,0.20
2010,08,06,01,48,0.00
2010,08,06,01,49,0.70
2010,08,06,01,50,0.00
2010,08,06,01,51,0.40
2010,08,06,01,52,0.20
2010,08,06,01,53,0.10
2010,08,06,01,54,0.00
2010,08,06,01,55,0.20
2010,08,06,01,56,0.20
2010,08,06,01,57,0.20
2010,08,06,01,58,0.00
2010,08,06,01,59,0.00
2010,08,06,02,00,0.10
2010,08,06,02,01,0.10
2010,08,06,02,02,0.00
2010,08,06,02,03,0.00
2010,08,06,02,04,0.00
2010,08,06,02,05,0.00
2010,08,06,02,06,0.00
2010,08,06,02,07,0.00
2010,08,06,02,08,0.00
2010,08,06,02,09,0.10
2010,08,06,02,10,0.00
2010,08,06,02,11,0.20
2010,08,06,02,12,0.10
2010,08,06,02,13,0.50
2010,08,06,02,14,1.40
2010,08,06,02,15,0.50
2010,08,06,02,16,0.90
2010,08,06,02,17,0.90
2010,08,06,02,18,1.90
2010,08,06,02,19,2.10
2010,08,06,02,20,0.10
2010,08,06,02,21,0.90
2010,08,06,02,22,0.00
2010,08,06,02,23,0.70
2010,08,06,02,24,0.00
2010,08,06,02,25,1.30
2010,08,06,02,26,0.50
2010,08,06,02,27,1.10
2010,08,06,02,28,0.30
2010,08,06,02,29,0.40
2010,08,06,02,30,4.40
2010,08,06,02,31,4.80
2010,08,06,02,32,1.70
2010,08,06,02,33,2.80
2010,08,06,02,34,4.50
2010,08,06,02,35,1.90
2010,08,06,02,36,1.50
2010,08,06,02,37,3.00
2010,08,06,02,38,0.50
2010,08,06,02,39,1.70
2010,08,06,02,40,0.30
2010,08,06,02,41,0.40
2010,08,06,02,42,0.30
2010,08,06,02,43,0.00
2010,08,06,02,44,0.00
2010,08,06,02,45,0.20
2010,08,06,02,46,0.00
2010,08,06,02,47,0.10
2010,08,06,02,48,0.00
2010,08,06,02,49,0.00
2010,08,06,02,50,0.20
2010,08,06,02,51,0.20
2010,08,06,02,52,0.20
2010,08,06,02,53,0.20
2010,08,06,02,54,0.20
2010,08,06,02,55,0.00
2010,08,06,02,56,0.90
2010,08,06,02,57,0.70
2010,08,06,02,58,0.60
2010,08,06,02,59,1.30
2010,08,06,03,00,4.20
2010,08,06,03,01,5.80
2010,08,06,03,02,5.50
2010,08,06,03,03,6.10
2010,08,06,03,04,4.70
2010,08,06,03,05,6.60
2010,08,06,03,06,6.50
2010,08,06,03,07,2.30
2010,08,06,03,08,3.60
2010,08,06,03,09,2.20
2010,08,06,03,10,1.40
2010,08,06,03,11,0.20
2010,08,06,03,12,0.00
2010,08,06,03,13,0.20
2010,08,06,03,14,0.10
2010,08,06,03,15,0.10
2010,08,06,03,16,0.20
2010,08,06,03,17,0.20
2010,08,06,03,18,0.50
2010,08,06,03,19,0.00
2010,08,06,03,20,0.20
2010,08,06,03,21,0.30
2010,08,06,03,22,0.10
2010,08,06,03,23,0.30
2010,08,06,03,24,0.70
2010,08,06,03,25,0.20
2010,08,06,03,26,2.40
2010,08,06,03,27,2.80
2010,08,06,03,28,0.10
2010,08,06,03,29,3.00
2010,08,06,03,30,2.90
2010,08,06,03,31,4.10
2010,08,06,03,32,3.80
2010,08,06,03,33,2.00
2010,08,06,03,34,4.20
2010,08,06,03,35,5.50
2010,08,06,03,36,3.50
2010,08,06,03,37,3.50
2010,08,06,03,38,3.40
2010,08,06,03,39,4.70
2010,08,06,03,40,5.60
2010,08,06,03,41,3.20
2010,08,06,03,42,2.30
2010,08,06,03,43,3.60
2010,08,06,03,44,2.10
2010,08,06,03,45,5.10
2010,08,06,03,46,3.70
2010,08,06,03,47,2.60
2010,08,06,03,48,3.60
2010,08,06,03,49,3.50
2010,08,06,03,50,3.10
2010,08,06,03,51,2.50
2010,08,06,03,52,3.80
2010,08,06,03,53,2.70
2010,08,06,03,54,2.50
2010,08,06,03,55,2.00
2010,08,06,03,56,2.10
2010,08,06,03,57,2.70
2010,08,06,03,58,0.80
2010,08,06,03,59,1.30
2010,08,06,04,00,3.20
2010,08,06,04,01,4.20
2010,08,06,04,02,4.60
2010,08,06,04,03,3.10
2010,08,06,04,06,1.60
2010,08,06,04,09,2.80
2010,08,06,04,11,2.80
2010,08,06,04,12,0.80
2010,08,06,04,13,5.30
2010,08,06,04,14,0.20
2010,08,06,04,15,0.40
2010,08,06,04,16,0.00
2010,08,06,04,17,0.20
2010,08,06,04,18,0.00
2010,08,06,04,19,0.00
2010,08,06,04,20,0.00
2010,08,06,04,21,1.10
2010,08,06,04,22,1.60
2010,08,06,04,23,0.00
2010,08,06,04,24,0.00
2010,08,06,04,25,0.00
2010,08,06,04,26,0.00
2010,08,06,04,27,0.00
2010,08,06,04,28,0.00
2010,08,06,04,29,0.00
2010,08,06,04,30,0.20
2010,08,06,04,31,0.00
2010,08,06,04,32,0.20
2010,08,06,04,33,1.10
2010,08,06,04,34,0.90
2010,08,06,04,35,2.60
2010,08,06,04,36,0.30
2010,08,06,04,37,0.10
2010,08,06,04,38,0.00
2010,08,06,04,39,0.00
2010,08,06,04,40,0.00
2010,08,06,04,41,0.00
2010,08,06,04,42,0.00
2010,08,06,04,43,0.00
2010,08,06,04,44,0.00
2010,08,06,04,45,0.00
2010,08,06,04,46,0.10
2010,08,06,04,47,0.00
2010,08,06,04,48,0.00
2010,08,06,04,49,0.10
2010,08,06,04,50,0.00
2010,08,06,04,51,0.60
2010,08,06,04,52,0.00
2010,08,06,04,53,0.20
2010,08,06,04,54,1.00
2010,08,06,04,55,2.00
2010,08,06,04,56,1.20
2010,08,06,04,57,1.00
2010,08,06,04,58,0.30
2010,08,06,04,59,1.50
2010,08,06,05,00,1.10
2010,08,06,05,01,0.00
2010,08,06,05,02,0.10
2010,08,06,05,03,0.10
2010,08,06,05,04,0.00
2010,08,06,05,05,0.00
2010,08,06,05,06,0.10
2010,08,06,05,07,0.00
2010,08,06,05,08,0.10
2010,08,06,05,09,0.00
2010,08,06,05,10,0.00
2010,08,06,05,11,0.10
2010,08,06,05,12,0.00
2010,08,06,05,13,0.20
2010,08,06,05,14,0.10
2010,08,06,05,15,0.20
2010,08,06,05,16,0.10
2010,08,06,05,17,0.20
2010,08,06,05,18,0.00
2010,08,06,05,19,0.00
2010,08,06,05,20,0.00
2010,08,06,05,21,0.00
2010,08,06,05,22,0.00
2010,08,06,05,23,0.30
2010,08,06,05,24,0.10
2010,08,06,05,25,0.10
2010,08,06,05,26,0.60
2010,08,06,05,27,0.20
2010,08,06,05,28,0.50
2010,08,06,05,29,0.00
2010,08,06,05,30,0.20
2010,08,06,05,31,0.20
2010,08,06,05,32,0.00
2010,08,06,05,33,0.20
2010,08,06,05,34,0.60
2010,08,06,05,35,0.40
2010,08,06,05,36,2.20
2010,08,06,05,37,0.60
2010,08,06,05,38,2.50
2010,08,06,05,39,2.00
2010,08,06,05,40,2.00
2010,08,06,05,41,0.30
2010,08,06,05,42,0.70
2010,08,06,05,43,0.50
2010,08,06,05,44,1.60
2010,08,06,05,45,1.90
2010,08,06,05,46,1.70
2010,08,06,05,47,2.30
2010,08,06,05,48,1.90
2010,08,06,05,49,1.70
2010,08,06,05,50,0.30
2010,08,06,05,51,1.20
2010,08,06,05,52,1.30
2010,08,06,05,53,0.40
2010,08,06,05,54,0.30
2010,08,06,05,55,1.20
2010,08,06,05,56,0.20
2010,08,06,05,57,0.00
2010,08,06,05,58,0.30
2010,08,06,05,59,0.10
2010,08,06,06,00,0.80
2010,08,06,06,01,1.30
2010,08,06,06,02,1.20
2010,08,06,06,03,1.00
2010,08,06,06,04,0.40
2010,08,06,06,05,0.10
2010,08,06,06,06,0.10
2010,08,06,06,07,1.00
2010,08,06,06,08,1.80
2010,08,06,06,09,0.50
2010,08,06,06,10,0.20
2010,08,06,06,11,0.00
2010,08,06,06,12,0.00
2010,08,06,06,13,0.00
2010,08,06,06,14,0.00
2010,08,06,06,15,1.00
2010,08,06,06,16,0.10
2010,08,06,06,17,1.50
2010,08,06,06,18,2.40
2010,08,06,06,19,1.20
2010,08,06,06,20,0.50
2010,08,06,06,21,1.50
2010,08,06,06,22,3.10
2010,08,06,06,23,2.40
2010,08,06,06,24,3.60
2010,08,06,06,25,1.10
2010,08,06,06,26,0.20
2010,08,06,06,27,0.00
2010,08,06,06,28,0.10
2010,08,06,06,29,0.20
2010,08,06,06,30,0.00
2010,08,06,06,31,0.00
2010,08,06,06,32,0.00
2010,08,06,06,33,0.20
2010,08,06,06,34,0.10
2010,08,06,06,35,0.00
2010,08,06,06,36,0.20
2010,08,06,06,37,0.20
2010,08,06,06,38,0.00
2010,08,06,06,39,0.10
2010,08,06,06,40,0.40
2010,08,06,06,41,1.50
2010,08,06,06,42,0.60
2010,08,06,06,43,1.40
2010,08,06,06,44,0.60
2010,08,06,06,45,0.60
2010,08,06,06,46,0.10
2010,08,06,06,47,0.70
2010,08,06,06,48,1.30
2010,08,06,06,49,0.10
2010,08,06,06,50,0.10
2010,08,06,06,51,0.10
2010,08,06,06,52,0.10
2010,08,06,06,53,1.10
2010,08,06,06,54,1.10
2010,08,06,06,55,1.40
2010,08,06,06,56,3.30
2010,08,06,06,57,2.90
2010,08,06,06,58,1.10
2010,08,06,06,59,0.20
2010,08,06,07,00,0.40
2010,08,06,07,01,1.50
2010,08,06,07,02,0.70
2010,08,06,07,03,0.70
2010,08,06,07,04,1.90
2010,08,06,07,05,2.40
2010,08,06,07,06,0.50
2010,08,06,07,07,1.70
2010,08,06,07,08,0.80
2010,08,06,07,09,0.50
2010,08,06,07,10,2.80
2010,08,06,07,11,2.30
2010,08,06,07,12,2.30
2010,08,06,07,13,1.70
2010,08,06,07,14,1.50
2010,08,06,07,15,3.00
2010,08,06,07,16,1.00
2010,08,06,07,17,1.00
2010,08,06,07,18,0.30
2010,08,06,07,19,0.30
2010,08,06,07,20,0.60
2010,08,06,07,21,0.50
2010,08,06,07,22,0.60
2010,08,06,07,23,1.00
2010,08,06,07,24,2.20
2010,08,06,07,25,2.90
2010,08,06,07,26,1.30
2010,08,06,07,27,1.70
2010,08,06,07,28,0.60
2010,08,06,07,29,3.80
2010,08,06,07,30,0.80
2010,08,06,07,31,0.20
2010,08,06,07,32,4.20
2010,08,06,07,33,0.00
2010,08,06,07,34,0.00
2010,08,06,07,35,0.00
2010,08,06,07,36,0.00
2010,08,06,07,37,1.00
2010,08,06,07,38,0.20
2010,08,06,07,39,0.00
2010,08,06,07,40,0.00
2010,08,06,07,41,0.00
2010,08,06,07,42,0.90
2010,08,06,07,43,0.30
2010,08,06,07,44,0.00
2010,08,06,07,45,0.10
2010,08,06,07,46,0.80
2010,08,06,07,47,0.20
2010,08,06,07,48,0.10
2010,08,06,07,49,0.20
2010,08,06,07,50,0.10
2010,08,06,07,51,0.50
2010,08,06,07,52,0.00
2010,08,06,07,53,1.00
2010,08,06,07,54,1.00
2010,08,06,07,55,1.90
2010,08,06,07,56,3.00
2010,08,06,07,57,0.80
2010,08,06,07,58,2.30
2010,08,06,07,59,2.70
2010,08,06,08,00,2.70
2010,08,06,08,01,0.20
2010,08,06,08,02,0.10
2010,08,06,08,03,1.10
2010,08,06,08,04,0.10
2010,08,06,08,05,3.00
2010,08,06,08,06,0.30
2010,08,06,08,07,1.40
2010,08,06,08,08,0.20
2010,08,06,08,09,0.10
2010,08,06,08,10,0.00
2010,08,06,08,11,0.40
2010,08,06,08,12,2.60
2010,08,06,08,13,3.10
2010,08,06,08,14,1.20
2010,08,06,08,15,1.50
2010,08,06,08,16,1.60
2010,08,06,08,17,2.50
2010,08,06,08,18,1.50
2010,08,06,08,19,0.60
2010,08,06,08,20,1.00
2010,08,06,08,21,1.40
2010,08,06,08,22,0.70
2010,08,06,08,23,0.80
2010,08,06,08,24,0.30
2010,08,06,08,25,0.10
2010,08,06,08,26,0.00
2010,08,06,08,27,0.20
2010,08,06,08,28,0.10
2010,08,06,08,29,0.00
2010,08,06,08,30,0.00
2010,08,06,08,31,0.20
2010,08,06,08,32,0.00
2010,08,06,08,33,0.50
2010,08,06,08,34,0.30
2010,08,06,08,35,0.60
2010,08,06,08,36,0.20
2010,08,06,08,37,0.50
2010,08,06,08,38,0.40
2010,08,06,08,39,0.70
2010,08,06,08,40,1.00
2010,08,06,08,41,2.20
2010,08,06,08,42,3.50
2010,08,06,08,43,1.80
2010,08,06,08,44,1.20
2010,08,06,08,45,1.00
2010,08,06,08,46,1.30
2010,08,06,08,47,3.10
2010,08,06,08,48,2.60
2010,08,06,08,49,6.40
2010,08,06,08,50,7.70
2010,08,06,08,51,6.90
2010,08,06,08,52,8.50
2010,08,06,08,53,3.40
2010,08,06,08,54,5.50
2010,08,06,08,55,6.60
2010,08,06,08,56,8.60
2010,08,06,08,57,6.00
2010,08,06,08,58,7.90
2010,08,06,08,59,8.20
2010,08,06,09,00,8.80
2010,08,06,09,01,10.70
2010,08,06,09,02,10.10
2010,08,06,09,03,8.40
2010,08,06,09,04,1.90
2010,08,06,09,05,2.30
2010,08,06,09,06,6.30
2010,08,06,09,07,5.90
2010,08,06,09,08,4.70
2010,08,06,09,09,7.50
2010,08,06,09,10,5.60
2010,08,06,09,11,6.60
2010,08,06,09,12,9.20
2010,08,06,09,13,7.80
2010,08,06,09,14,8.60
2010,08,06,09,15,5.20
2010,08,06,09,16,5.50
2010,08,06,09,17,5.90
2010,08,06,09,18,4.20
2010,08,06,09,19,8.80
2010,08,06,09,20,8.60
2010,08,06,09,21,7.10
2010,08,06,09,22,2.10
2010,08,06,09,23,5.70
2010,08,06,09,24,1.90
2010,08,06,09,25,6.70
2010,08,06,09,26,8.50
2010,08,06,09,27,7.50
2010,08,06,09,28,6.00
2010,08,06,09,29,2.70
2010,08,06,09,30,3.60
2010,08,06,09,31,4.00
2010,08,06,09,32,8.00
2010,08,06,09,33,7.50
2010,08,06,09,34,5.20
2010,08,06,09,35,2.00
2010,08,06,09,36,6.40
2010,08,06,09,37,2.90
2010,08,06,09,38,6.80
2010,08,06,09,39,5.10
2010,08,06,09,40,7.90
2010,08,06,09,41,11.50
2010,08,06,09,42,6.10
2010,08,06,09,43,8.50
2010,08,06,09,44,7.30
2010,08,06,09,45,9.80
2010,08,06,09,46,8.80
2010,08,06,09,47,3.10
2010,08,06,09,48,8.60
2010,08,06,09,49,2.50
2010,08,06,09,50,11.00
2010,08,06,09,51,9.00
2010,08,06,09,52,5.70
2010,08,06,09,53,7.50
2010,08,06,09,54,8.10
2010,08,06,09,55,5.50
2010,08,06,09,56,2.60
2010,08,06,09,57,0.50
2010,08,06,09,58,2.90
2010,08,06,09,59,3.10
2010,08,06,10,00,5.60
2010,08,06,10,01,7.10
2010,08,06,10,02,2.20
2010,08,06,10,03,4.80
2010,08,06,10,04,3.60
2010,08,06,10,05,1.20
2010,08,06,10,06,8.20
2010,08,06,10,07,9.20
2010,08,06,10,08,5.80
2010,08,06,10,09,2.70
2010,08,06,10,10,7.30
2010,08,06,10,11,8.30
2010,08,06,10,12,10.20
2010,08,06,10,13,13.10
2010,08,06,10,14,8.70
2010,08,06,10,15,6.20
2010,08,06,10,16,5.70
2010,08,06,10,17,9.10
2010,08,06,10,18,7.40
2010,08,06,10,19,6.40
2010,08,06,10,20,9.20
2010,08,06,10,21,9.50
2010,08,06,10,22,7.70
2010,08,06,10,23,9.40
2010,08,06,10,24,7.00
2010,08,06,10,25,8.90
2010,08,06,10,26,7.10
2010,08,06,10,27,10.10
2010,08,06,10,28,9.20
2010,08,06,10,29,10.20
2010,08,06,10,30,9.00
2010,08,06,10,31,10.90
2010,08,06,10,32,12.40
2010,08,06,10,33,10.00
2010,08,06,10,34,9.70
2010,08,06,10,35,7.10
2010,08,06,10,36,13.40
2010,08,06,10,37,11.60
2010,08,06,10,38,15.30
2010,08,06,10,39,8.30
2010,08,06,10,40,9.20
2010,08,06,10,41,9.80
2010,08,06,10,42,9.30
2010,08,06,10,43,9.70
2010,08,06,10,44,7.00
2010,08,06,10,45,9.90
2010,08,06,10,46,13.90
2010,08,06,10,47,12.40
2010,08,06,10,48,8.60
2010,08,06,10,49,15.10
2010,08,06,10,50,14.70
2010,08,06,10,51,8.10
2010,08,06,10,52,9.40
2010,08,06,10,53,6.90
2010,08,06,10,54,4.70
2010,08,06,10,55,13.50
2010,08,06,10,56,10.60
2010,08,06,10,57,8.60
2010,08,06,10,58,11.90
2010,08,06,10,59,10.50
2010,08,06,11,00,17.90
2010,08,06,11,01,12.10
2010,08,06,11,02,10.70
2010,08,06,11,03,9.60
2010,08,06,11,04,15.10
2010,08,06,11,05,13.80
2010,08,06,11,06,6.00
2010,08,06,11,07,8.80
2010,08,06,11,08,15.00
2010,08,06,11,09,15.40
2010,08,06,11,10,10.70
2010,08,06,11,11,12.00
2010,08,06,11,12,3.70
2010,08,06,11,13,1.40
2010,08,06,11,14,4.90
2010,08,06,11,15,8.00
2010,08,06,11,16,6.80
2010,08,06,11,17,6.30
2010,08,06,11,18,8.80
2010,08,06,11,19,4.00
2010,08,06,11,20,6.10
2010,08,06,11,21,1.60
2010,08,06,11,22,6.10
2010,08,06,11,23,3.80
2010,08,06,11,24,6.70
2010,08,06,11,25,5.10
2010,08,06,11,26,8.40
2010,08,06,11,27,3.40
2010,08,06,11,28,6.80
2010,08,06,11,29,7.30
2010,08,06,11,30,5.20
2010,08,06,11,31,10.90
2010,08,06,11,32,8.00
2010,08,06,11,33,9.10
2010,08,06,11,34,6.10
2010,08,06,11,35,3.50
2010,08,06,11,36,7.20
2010,08,06,11,37,12.60
2010,08,06,11,38,10.20
2010,08,06,11,39,7.30
2010,08,06,11,40,7.40
2010,08,06,11,41,9.30
2010,08,06,11,42,11.30
2010,08,06,11,43,3.60
2010,08,06,11,44,15.60
2010,08,06,11,45,6.90
2010,08,06,11,46,13.70
2010,08,06,11,47,9.30
2010,08,06,11,48,7.20
2010,08,06,11,49,5.30
2010,08,06,11,50,11.00
2010,08,06,11,51,9.80
2010,08,06,11,52,7.50
2010,08,06,11,53,4.60
2010,08,06,11,54,7.10
2010,08,06,11,55,11.30
2010,08,06,11,56,13.80
2010,08,06,11,57,4.60
2010,08,06,11,58,6.60
2010,08,06,11,59,7.30
2010,08,06,12,00,14.20
2010,08,06,12,01,13.30
2010,08,06,12,02,16.00
2010,08,06,12,03,11.50
2010,08,06,12,04,17.50
2010,08,06,12,05,4.60
2010,08,06,12,06,11.80
2010,08,06,12,07,8.10
2010,08,06,12,08,4.50
2010,08,06,12,09,9.30
2010,08,06,12,10,4.10
2010,08,06,12,11,6.80
2010,08,06,12,12,12.10
2010,08,06,12,13,17.50
2010,08,06,12,14,16.50
2010,08,06,12,15,13.50
2010,08,06,12,16,11.00
2010,08,06,12,17,12.30
2010,08,06,12,18,14.40
2010,08,06,12,19,14.60
2010,08,06,12,20,16.20
2010,08,06,12,21,4.70
2010,08,06,12,22,15.80
2010,08,06,12,23,14.70
2010,08,06,12,24,15.70
2010,08,06,12,25,11.10
2010,08,06,12,26,4.20
2010,08,06,12,27,6.40
2010,08,06,12,28,10.00
2010,08,06,12,29,9.00
2010,08,06,12,30,7.70
2010,08,06,12,31,13.40
2010,08,06,12,32,8.00
2010,08,06,12,33,12.50
2010,08,06,12,34,14.80
2010,08,06,12,35,14.80
2010,08,06,12,36,19.20
2010,08,06,12,37,15.40
2010,08,06,12,38,9.40
2010,08,06,12,39,10.50
2010,08,06,12,40,11.80
2010,08,06,12,41,19.10
2010,08,06,12,42,13.00
2010,08,06,12,43,15.90
2010,08,06,12,44,8.90
2010,08,06,12,45,15.90
2010,08,06,12,46,16.60
2010,08,06,12,47,12.20
2010,08,06,12,48,17.10
2010,08,06,12,49,19.30
2010,08,06,12,50,17.80
2010,08,06,12,51,13.70
2010,08,06,12,52,14.50
2010,08,06,12,53,10.20
2010,08,06,12,54,14.10
2010,08,06,12,55,16.90
2010,08,06,12,56,17.40
2010,08,06,12,57,18.10
2010,08,06,12,58,7.20
2010,08,06,12,59,12.20
2010,08,06,13,00,14.00
2010,08,06,13,01,11.80
2010,08,06,13,02,9.90
2010,08,06,13,03,15.70
2010,08,06,13,04,13.50
2010,08,06,13,05,16.00
2010,08,06,13,06,16.70
2010,08,06,13,07,15.30
2010,08,06,13,08,8.10
2010,08,06,13,09,10.50
2010,08,06,13,10,3.80
2010,08,06,13,11,11.10
2010,08,06,13,12,9.90
2010,08,06,13,13,10.40
2010,08,06,13,14,16.10
2010,08,06,13,15,12.60
2010,08,06,13,16,9.70
2010,08,06,13,17,9.90
2010,08,06,13,18,12.00
2010,08,06,13,19,13.80
2010,08,06,13,20,10.80
2010,08,06,13,21,6.90
2010,08,06,13,22,12.50
2010,08,06,13,23,12.00
2010,08,06,13,24,13.40
2010,08,06,13,25,11.70
2010,08,06,13,26,8.50
2010,08,06,13,27,11.50
2010,08,06,13,28,9.60
2010,08,06,13,29,10.80
2010,08,06,13,30,2.50
2010,08,06,13,31,9.70
2010,08,06,13,32,14.50
2010,08,06,13,33,13.90
2010,08,06,13,34,12.90
2010,08,06,13,35,15.50
2010,08,06,13,36,18.20
2010,08,06,13,37,20.80
2010,08,06,13,38,12.10
2010,08,06,13,39,12.40
2010,08,06,13,40,17.90
2010,08,06,13,41,15.00
2010,08,06,13,42,18.20
2010,08,06,13,43,17.30
2010,08,06,13,44,7.70
2010,08,06,13,45,9.70
2010,08,06,13,46,7.40
2010,08,06,13,47,10.80
2010,08,06,13,48,9.60
2010,08,06,13,49,11.00
2010,08,06,13,50,7.50
2010,08,06,13,51,13.00
2010,08,06,13,52,15.50
2010,08,06,13,53,13.90
2010,08,06,13,54,13.80
2010,08,06,13,55,13.80
2010,08,06,13,56,14.60
2010,08,06,13,57,12.40
2010,08,06,13,58,5.80
2010,08,06,13,59,9.90
2010,08,06,14,00,12.60
2010,08,06,14,01,9.10
2010,08,06,14,02,11.80
2010,08,06,14,03,11.90
2010,08,06,14,04,7.20
2010,08,06,14,05,6.70
2010,08,06,14,06,10.30
2010,08,06,14,07,13.40
2010,08,06,14,08,10.60
2010,08,06,14,09,9.00
2010,08,06,14,10,6.70
2010,08,06,14,11,13.00
2010,08,06,14,12,9.40
2010,08,06,14,13,9.90
2010,08,06,14,14,8.10
2010,08,06,14,15,7.90
2010,08,06,14,16,8.10
2010,08,06,14,17,6.90
2010,08,06,14,18,6.20
2010,08,06,14,19,5.70
2010,08,06,14,20,9.90
2010,08,06,14,21,5.40
2010,08,06,14,22,4.00
2010,08,06,14,23,6.60
2010,08,06,14,24,5.90
2010,08,06,14,25,9.90
2010,08,06,14,26,7.30
2010,08,06,14,27,8.00
2010,08,06,14,28,9.70
2010,08,06,14,29,5.30
2010,08,06,14,30,8.60
2010,08,06,14,31,10.20
2010,08,06,14,32,14.20
2010,08,06,14,33,12.00
2010,08,06,14,34,9.90
2010,08,06,14,35,10.30
2010,08,06,14,36,12.60
2010,08,06,14,37,16.30
2010,08,06,14,38,15.30
2010,08,06,14,39,8.90
2010,08,06,14,40,12.40
2010,08,06,14,41,9.80
2010,08,06,14,42,10.20
2010,08,06,14,43,6.40
2010,08,06,14,44,14.50
2010,08,06,14,45,16.40
2010,08,06,14,46,12.60
2010,08,06,14,47,12.20
2010,08,06,14,48,11.70
2010,08,06,14,49,8.80
2010,08,06,14,50,11.10
2010,08,06,14,51,10.00
2010,08,06,14,52,12.80
2010,08,06,14,53,10.60
2010,08,06,14,54,12.40
2010,08,06,14,55,11.00
2010,08,06,14,56,11.90
2010,08,06,14,57,9.70
2010,08,06,14,58,12.30
2010,08,06,14,59,12.40
2010,08,06,15,00,11.20
2010,08,06,15,01,15.60
2010,08,06,15,02,15.00
2010,08,06,15,03,15.50
2010,08,06,15,04,16.70
2010,08,06,15,05,16.50
2010,08,06,15,06,16.50
2010,08,06,15,07,7.30
2010,08,06,15,08,14.10
2010,08,06,15,09,12.40
2010,08,06,15,10,12.30
2010,08,06,15,11,8.10
2010,08,06,15,12,8.90
2010,08,06,15,13,12.10
2010,08,06,15,14,9.00
2010,08,06,15,15,3.90
2010,08,06,15,16,7.70
2010,08,06,15,17,15.40
2010,08,06,15,18,12.50
2010,08,06,15,19,8.40
2010,08,06,15,20,15.70
2010,08,06,15,21,17.70
2010,08,06,15,22,16.30
2010,08,06,15,23,12.10
2010,08,06,15,24,16.20
2010,08,06,15,25,8.10
2010,08,06,15,26,12.10
2010,08,06,15,27,15.70
2010,08,06,15,28,14.70
2010,08,06,15,29,7.70
2010,08,06,15,30,14.80
2010,08,06,15,31,20.30
2010,08,06,15,32,18.60
2010,08,06,15,33,22.60
2010,08,06,15,34,16.00
2010,08,06,15,35,9.50
2010,08,06,15,36,9.90
2010,08,06,15,37,16.90
2010,08,06,15,38,20.90
2010,08,06,15,39,13.60
2010,08,06,15,40,19.90
2010,08,06,15,41,15.00
2010,08,06,15,42,16.20
2010,08,06,15,43,8.30
2010,08,06,15,44,14.80
2010,08,06,15,45,14.70
2010,08,06,15,46,15.80
2010,08,06,15,47,18.10
2010,08,06,15,48,14.60
2010,08,06,15,49,12.70
2010,08,06,15,50,13.00
2010,08,06,15,51,19.60
2010,08,06,15,52,10.30
2010,08,06,15,53,10.80
2010,08,06,15,54,15.80
2010,08,06,15,55,9.90
2010,08,06,15,56,10.20
2010,08,06,15,57,9.80
2010,08,06,15,58,11.00
2010,08,06,15,59,20.80
2010,08,06,16,00,14.80
2010,08,06,16,01,18.20
2010,08,06,16,02,13.30
2010,08,06,16,03,16.70
2010,08,06,16,04,12.90
2010,08,06,16,05,14.40
2010,08,06,16,06,8.80
2010,08,06,16,07,9.90
2010,08,06,16,08,17.80
2010,08,06,16,09,20.00
2010,08,06,16,10,17.70
2010,08,06,16,11,19.20
2010,08,06,16,12,11.30
2010,08,06,16,13,7.40
2010,08,06,16,14,16.40
2010,08,06,16,15,12.30
2010,08,06,16,16,15.60
2010,08,06,16,17,13.00
2010,08,06,16,18,9.70
2010,08,06,16,19,17.40
2010,08,06,16,20,20.60
2010,08,06,16,21,17.20
2010,08,06,16,22,14.70
2010,08,06,16,23,18.70
2010,08,06,16,24,21.90
2010,08,06,16,25,18.00
2010,08,06,16,26,19.30
2010,08,06,16,27,24.90
2010,08,06,16,28,20.30
2010,08,06,16,29,16.90
2010,08,06,16,30,12.70
2010,08,06,16,31,20.50
2010,08,06,16,32,19.30
2010,08,06,16,33,22.80
2010,08,06,16,34,17.40
2010,08,06,16,35,13.10
2010,08,06,16,36,14.90
2010,08,06,16,37,14.70
2010,08,06,16,38,13.80
2010,08,06,16,39,11.50
2010,08,06,16,40,15.70
2010,08,06,16,41,13.50
2010,08,06,16,42,17.50
2010,08,06,16,43,18.20
2010,08,06,16,44,20.40
2010,08,06,16,45,13.70
2010,08,06,16,46,15.60
2010,08,06,16,47,15.80
2010,08,06,16,48,23.90
2010,08,06,16,49,15.20
2010,08,06,16,50,13.10
2010,08,06,16,51,21.40
2010,08,06,16,52,16.90
2010,08,06,16,53,11.80
2010,08,06,16,54,12.40
2010,08,06,16,55,22.00
2010,08,06,16,56,12.60
2010,08,06,16,57,17.50
2010,08,06,16,58,17.10
2010,08,06,16,59,8.80
2010,08,06,17,00,8.50
2010,08,06,17,01,19.30
2010,08,06,17,02,19.50
2010,08,06,17,03,15.60
2010,08,06,17,04,22.40
2010,08,06,17,05,16.70
2010,08,06,17,06,20.30
2010,08,06,17,07,16.90
2010,08,06,17,08,11.50
2010,08,06,17,09,12.80
2010,08,06,17,10,10.30
2010,08,06,17,11,15.90
2010,08,06,17,12,13.90
2010,08,06,17,13,11.70
2010,08,06,17,14,15.60
2010,08,06,17,15,13.60
2010,08,06,17,16,11.10
2010,08,06,17,17,14.80
2010,08,06,17,18,15.80
2010,08,06,17,19,10.90
2010,08,06,17,20,8.90
2010,08,06,17,21,12.00
2010,08,06,17,22,18.10
2010,08,06,17,23,18.00
2010,08,06,17,24,11.40
2010,08,06,17,25,10.60
2010,08,06,17,26,12.80
2010,08,06,17,27,9.50
2010,08,06,17,28,14.30
2010,08,06,17,29,14.10
2010,08,06,17,30,14.80
2010,08,06,17,31,17.10
2010,08,06,17,32,14.00
2010,08,06,17,33,16.80
2010,08,06,17,34,16.70
2010,08,06,17,35,18.50
2010,08,06,17,36,14.20
2010,08,06,17,37,17.50
2010,08,06,17,38,15.90
2010,08,06,17,39,11.70
2010,08,06,17,40,13.30
2010,08,06,17,41,14.90
2010,08,06,17,42,17.20
2010,08,06,17,43,20.20
2010,08,06,17,44,19.10
2010,08,06,17,45,16.30
2010,08,06,17,46,18.00
2010,08,06,17,47,16.30
2010,08,06,17,48,8.80
2010,08,06,17,49,15.60
2010,08,06,17,50,11.70
2010,08,06,17,51,16.50
2010,08,06,17,52,13.10
2010,08,06,17,53,10.10
2010,08,06,17,54,11.80
2010,08,06,17,55,10.50
2010,08,06,17,56,15.10
2010,08,06,17,57,15.00